Tracking 28794 objects as of 19-Apr-2024
HD Live streaming from Space Station
objects crossing your sky now

COSMOS 2251 DEB

Track COSMOS 2251 DEB now!
10-day predictions


NORAD ID: 37975
Int'l Code: 1993-036BQA
Perigee: 635.2 km
Apogee: 854.5 km
Inclination: 74.0 °
Period: 99.6 minutes
Semi major axis: 7115 km
RCS: 0.0045 m2 (small)
Launch date: June 16, 1993
Source: Commonwealth of Independent States (former USSR) (CIS)
Launch site: PLESETSK MISSILE AND SPACE COMPLEX (PKMTR)

Note: This is SATELLITE DEBRIS
Your satellite tracking list
Your tracking list is empty




NASA's NSSDC Master Catalog

Two Line Element Set (TLE):
1 37975U 93036BQA 24108.16564597  .00023608  00000-0  56691-2 0  9998
2 37975  74.0151  42.9317 0154088 183.5210 176.4880 14.46305056609130
Source of the keplerian elements: AFSPC